This is the latest recevied weather packets stored in our database for station/object WP3OF-1. If no packets are shown the sender has not sent any weather packets the latest 10 day(s).
| Time | Temp. | Humidity | Pressure | Rain* | Wind** | Luminosity | Snow |
|---|---|---|---|---|---|---|---|
| 1778076946 | 28.33° C | 72% | 1019.9 hPa | 0 mm | - | - | - |
| 1778076644 | 28.33° C | 72% | 1020.1 hPa | 0 mm | - | - | - |
| 1778076341 | 28.89° C | 70% | 1019.8 hPa | 0 mm | - | - | - |
| 1778076039 | 28.33° C | 73% | 1019.8 hPa | 0 mm | - | - | - |
| 1778075735 | 28.89° C | 72% | 1019.9 hPa | 0 mm | - | - | - |
| 1778075431 | 29.44° C | 71% | 1019.9 hPa | 0 mm | - | - | - |
| 1778075128 | 28.33° C | 72% | 1019.8 hPa | 0 mm | - | - | - |
| 1778074824 | 28.33° C | 71% | 1019.7 hPa | 0 mm | - | - | - |
| 1778074521 | 29.44° C | 73% | 1019.7 hPa | 0 mm | - | - | - |
| 1778074218 | 28.89° C | 71% | 1019.7 hPa | 0 mm | - | - | - |
| 1778073915 | 28.33° C | 71% | 1019.9 hPa | 0 mm | - | - | - |
| 1778073613 | 28.33° C | 71% | 1019.9 hPa | 0 mm | - | - | - |
| 1778073310 | 27.78° C | 76% | 1019.6 hPa | 0 mm | - | - | - |
| 1778073006 | 28.33° C | 74% | 1019.9 hPa | 0 mm | - | - | - |
| 1778072703 | 28.33° C | 72% | 1019.8 hPa | 0 mm | - | - | - |
| 1778072400 | 28.33° C | 73% | 1019.4 hPa | 0 mm | - | - | - |
| 1778072099 | 28.33° C | 75% | 1019.4 hPa | 0 mm | - | - | - |
| 1778071796 | 27.78° C | 75% | 1019.3 hPa | 0 mm | - | - | - |
| 1778071494 | 27.78° C | 76% | 1019.4 hPa | 0 mm | - | - | - |
| 1778071192 | 27.78° C | 76% | 1019.4 hPa | 0 mm | - | - | - |
| 1778070889 | 28.33° C | 77% | 1019.3 hPa | 0 mm | - | - | - |
| 1778070587 | 27.78° C | 77% | 1019.6 hPa | 0 mm | - | - | - |
| 1778070283 | 27.22° C | 76% | 1019.4 hPa | 0 mm | - | - | - |
| 1778069982 | 27.78° C | 76% | 1019.3 hPa | 0 mm | - | - | - |
| 1778069678 | 27.78° C | 77% | 1019.3 hPa | 0 mm | - | - | - |
* Rain latest hour (hover to see other rain measurements)
** Current wind speed in m/s (hover to see current wind gust speed)